Regional Weather Roundup
Issued by NWS

Home | Current Version | Previous Version | Text Only | Print | Product List | Glossary Off
Versions: 1 2 3 4 5 6 7 8 9 10 11 12 13 14 15 16 17 18 19 20 21 22 23 24 25 26 27 28 29 30 31 32 33 34 35 36 37 38 39 40 41 42 43 44 45 46 47 48 49 50

138
ASUS44 KJAN 301810
RWRMS

MISSISSIPPI HOURLY WEATHER ROUNDUP
NATIONAL WEATHER SERVICE JACKSON MS
100 PM CDT MON MAR 30 2015

NOTE: "FAIR: INDICATES FEW OR NO CLOUDS BELOW 12,000 FEET WITH NO
SIGNIFICANT WEATHER AND/OR OBSTRUCTIONS TO VISIBILITY.

MSZ001>002-007>008-010>013-018>021-025>028-034>036-301900-
NORTHWEST MISSISSIPPI

CITY           SKY/WX    TMP DP  RH WIND       PRES   REMARKS
CLARKSDALE     FAIR      66  48  52 CALM      30.22F
CLEVELAND      FAIR      70  49  46 E6        30.21F
GREENWOOD      SUNNY     73  45  36 CALM      30.20F
6HR MIN TEMP:  61; 6HR MAX TEMP:  74;

GREENVILLE     SUNNY     73  47  39 MISG      30.20F
OLIVE BRANCH   MOSUNNY   64  43  45 NE6       30.22F
OXFORD         FAIR      68  43  40 SE6       30.22F
TUNICA         CLEAR     66  45  45 N3        30.22F
$$

MSZ003>006-009-014>017-022>024-029>033-037>039-301900-
NORTHEAST MISSISSIPPI

CITY           SKY/WX    TMP DP  RH WIND       PRES   REMARKS
COLUMBUS AFB   SUNNY     71  46  41 W8        30.19F
6HR MIN TEMP:  59; 6HR MAX TEMP:  71;

CORINTH        FAIR      64  39  39 CALM      30.21S
GOLDN TRIANGLE MOSUNNY   70  52  52 NW3       30.20F
STARKVILLE     FAIR      70  50  49 NE6       30.21F
TUPELO         SUNNY     68  44  42 CALM      30.20F
6HR MIN TEMP:  56; 6HR MAX TEMP:  69;

$$

MSZ040-058-301900-
CENTRAL MISSISSIPPI

CITY           SKY/WX    TMP DP  RH WIND       PRES   REMARKS
JACKSON INTL   CLOUDY    73  61  65 NW9       30.21F
6HR MIN TEMP:  64; 6HR MAX TEMP:  72; 6HR PCP: TRACE;

JACKSON HAWKNS PTSUNNY   73  62  68 VRB7      30.21F
6HR MIN TEMP:  63; 6HR MAX TEMP:  74; 6HR PCP: TRACE;

MERIDIAN KEY   CLOUDY    70  61  73 NW8       30.21F
6HR MIN TEMP:  61; 6HR MAX TEMP:  71; 6HR PCP:  0.05;

MERIDIAN NAS   PTSUNNY   71  61  70 NW8       30.19F
6HR MIN TEMP:  62; 6HR MAX TEMP:  71; 6HR PCP:  0.15;

RAYMOND        FAIR      72  66  83 NW6G14    30.21S
VICKSBURG      CLOUDY    73  62  68 VRB3      30.21F
6HR MIN TEMP:  63; 6HR MAX TEMP:  74; 6HR PCP:  0.01;

$$

MSZ059>079-301900-
SOUTH MISSISSIPPI

CITY           SKY/WX    TMP DP  RH WIND       PRES   REMARKS
BROOKHAVEN     FAIR      79  57  47 W10G18    30.22F
HATTIESBURG    MOSUNNY   79  58  48 W13G23    30.21F
6HR MIN TEMP:  59; 6HR MAX TEMP:  79;

MCCOMB         MOSUNNY   79  57  46 SW12      30.21F
6HR MIN TEMP:  55; 6HR MAX TEMP:  79;

NATCHEZ        PTSUNNY   75  61  60 SW10      30.22F
6HR MIN TEMP:  59; 6HR MAX TEMP:  75;

PINE BELT      MOSUNNY   77  57  50 SW7G17    30.22F
6HR MIN TEMP:  61; 6HR MAX TEMP:  77;

$$

MSZ080>082-301900-
COASTAL MISSISSIPPI

CITY           SKY/WX    TMP DP  RH WIND       PRES   REMARKS
BAY ST LOUIS   PTSUNNY   79  57  47 MISG      30.22F
BILOXI         MOSUNNY   76  65  67 SW15      30.21F
6HR MIN TEMP:  63; 6HR MAX TEMP:  77;

PASCAGOULA     PTSUNNY   80  64  58 S10       30.21F
6HR MIN TEMP:  61; 6HR MAX TEMP:  81;

GULFPORT       PTSUNNY   77  63  61 S12       30.21F
6HR MIN TEMP:  60; 6HR MAX TEMP:  77;

$$



USA.gov is the U.S. government's official web portal to all federal, state and local government web resources and services.